Time,TemperatureF,DewpointF,PressureIn,WindDirection,WindDirectionDegrees,WindSpeedMPH,WindSpeedGustMPH,Humidity,HourlyPrecipIn,Conditions,Clouds,dailyrainin,SoftwareType,DateUTC
2017-02-19 00:01:00,28.2,11.1,29.82,WSW,237,0.0,0.0,48,0.00,,---,0.00,VWS V13.00,2017-02-19 07:01:00,
2017-02-19 00:06:00,28.0,10.9,29.82,WSW,237,0.0,0.0,48,0.00,,---,0.00,VWS V13.00,2017-02-19 07:06:00,
2017-02-19 00:11:00,27.9,10.7,29.85,WSW,237,0.0,0.0,48,0.00,,---,0.00,VWS V13.00,2017-02-19 07:11:00,
2017-02-19 00:16:00,27.9,10.7,29.85,WSW,237,0.0,0.0,48,0.00,,---,0.00,VWS V13.00,2017-02-19 07:16:00,
2017-02-19 00:21:00,27.9,11.2,29.85,WSW,237,0.0,0.0,49,0.00,,---,0.00,VWS V13.00,2017-02-19 07:21:00,
2017-02-19 00:26:00,27.9,11.6,29.85,WSW,237,0.0,0.0,50,0.00,,---,0.00,VWS V13.00,2017-02-19 07:26:00,
2017-02-19 00:31:00,27.9,11.6,29.85,WSW,237,0.0,0.0,50,0.00,,---,0.00,VWS V13.00,2017-02-19 07:31:00,
2017-02-19 00:36:00,28.2,12.4,29.85,WSW,237,0.0,0.0,51,0.00,,---,0.00,VWS V13.00,2017-02-19 07:36:00,
2017-02-19 00:41:00,28.4,12.6,29.85,WSW,237,0.0,0.0,51,0.00,,---,0.00,VWS V13.00,2017-02-19 07:41:00,
2017-02-19 00:46:00,28.6,12.8,29.85,WSW,237,0.0,0.0,51,0.00,,---,0.00,VWS V13.00,2017-02-19 07:46:00,
2017-02-19 00:51:00,28.9,13.1,29.85,WSW,237,0.0,0.0,51,0.00,,---,0.00,VWS V13.00,2017-02-19 07:51:00,
2017-02-19 00:56:00,29.3,13.4,29.85,WSW,237,0.0,0.0,51,0.00,,---,0.00,VWS V13.00,2017-02-19 07:56:00,
2017-02-19 01:01:00,29.3,13.4,29.85,WSW,237,0.0,0.0,51,0.00,,---,0.00,VWS V13.00,2017-02-19 08:01:00,
2017-02-19 01:06:00,29.1,13.3,29.85,WSW,237,0.0,0.0,51,0.00,,---,0.00,VWS V13.00,2017-02-19 08:06:00,
2017-02-19 01:11:00,29.1,13.3,29.85,WSW,237,0.0,0.0,51,0.00,,---,0.00,VWS V13.00,2017-02-19 08:11:00,
2017-02-19 01:16:00,29.3,13.4,29.85,WSW,237,0.0,0.0,51,0.00,,---,0.00,VWS V13.00,2017-02-19 08:16:00,
2017-02-19 01:21:00,29.5,13.6,29.85,WSW,237,0.0,0.0,51,0.00,,---,0.00,VWS V13.00,2017-02-19 08:21:00,
2017-02-19 01:26:00,29.7,13.8,29.85,WSW,237,0.0,0.0,51,0.00,,---,0.00,VWS V13.00,2017-02-19 08:26:00,
2017-02-19 01:31:00,30.0,14.5,29.85,WSW,237,0.0,0.0,52,0.00,,---,0.00,VWS V13.00,2017-02-19 08:31:00,
2017-02-19 01:36:00,30.2,14.7,29.85,WSW,237,0.0,0.0,52,0.00,,---,0.00,VWS V13.00,2017-02-19 08:36:00,
2017-02-19 01:41:00,30.4,14.4,29.85,WSW,237,0.0,0.0,51,0.00,,---,0.00,VWS V13.00,2017-02-19 08:41:00,
2017-02-19 01:46:00,30.4,14.4,29.85,WSW,237,0.0,0.0,51,0.00,,---,0.00,VWS V13.00,2017-02-19 08:46:00,
2017-02-19 01:51:00,30.4,14.4,29.85,WSW,237,0.0,0.0,51,0.00,,---,0.00,VWS V13.00,2017-02-19 08:51:00,
2017-02-19 01:56:00,30.2,14.3,29.85,WSW,237,0.0,0.0,51,0.00,,---,0.00,VWS V13.00,2017-02-19 08:56:00,
2017-02-19 02:01:00,29.7,13.8,29.85,WSW,237,0.0,0.0,51,0.00,,---,0.00,VWS V13.00,2017-02-19 09:01:00,
2017-02-19 02:06:00,28.9,12.6,29.85,WSW,237,0.0,0.0,50,0.00,,---,0.00,VWS V13.00,2017-02-19 09:06:00,
2017-02-19 02:11:00,28.6,12.3,29.85,WSW,237,0.0,0.0,50,0.00,,---,0.00,VWS V13.00,2017-02-19 09:11:00,
2017-02-19 02:16:00,28.2,12.0,29.85,WSW,237,0.0,0.0,50,0.00,,---,0.00,VWS V13.00,2017-02-19 09:16:00,
2017-02-19 02:21:00,27.9,12.1,29.85,WSW,237,0.0,0.0,51,0.00,,---,0.00,VWS V13.00,2017-02-19 09:21:00,
2017-02-19 02:31:00,27.7,11.9,29.85,WSW,237,0.0,0.0,51,0.00,,---,0.00,VWS V13.00,2017-02-19 09:31:00,
2017-02-19 02:36:00,27.5,11.8,29.85,WSW,237,0.0,0.0,51,0.00,,---,0.00,VWS V13.00,2017-02-19 09:36:00,
2017-02-19 02:41:00,27.5,11.8,29.85,WSW,237,0.0,0.0,51,0.00,,---,0.00,VWS V13.00,2017-02-19 09:41:00,
2017-02-19 02:46:00,27.3,12.0,29.85,WSW,237,0.0,0.0,52,0.00,,---,0.00,VWS V13.00,2017-02-19 09:46:00,
2017-02-19 02:51:00,27.3,12.0,29.85,WSW,237,0.0,0.0,52,0.00,,---,0.00,VWS V13.00,2017-02-19 09:51:00,
2017-02-19 02:56:00,27.1,11.9,29.85,WSW,237,0.0,0.0,52,0.00,,---,0.00,VWS V13.00,2017-02-19 09:56:00,
2017-02-19 03:01:00,27.3,12.0,29.85,WSW,237,0.0,0.0,52,0.00,,---,0.00,VWS V13.00,2017-02-19 10:01:00,
2017-02-19 03:06:00,27.1,12.3,29.85,WSW,237,0.0,0.0,53,0.00,,---,0.00,VWS V13.00,2017-02-19 10:06:00,
2017-02-19 03:11:00,27.1,12.3,29.85,WSW,237,0.0,0.0,53,0.00,,---,0.00,VWS V13.00,2017-02-19 10:11:00,
2017-02-19 03:16:00,27.3,12.5,29.85,WSW,237,0.0,0.0,53,0.00,,---,0.00,VWS V13.00,2017-02-19 10:16:00,
2017-02-19 03:21:00,27.5,13.1,29.85,WSW,237,0.0,0.0,54,0.00,,---,0.00,VWS V13.00,2017-02-19 10:21:00,
2017-02-19 03:26:00,27.3,12.9,29.85,WSW,237,0.0,0.0,54,0.00,,---,0.00,VWS V13.00,2017-02-19 10:26:00,
2017-02-19 03:31:00,27.1,12.3,29.85,WSW,237,0.0,0.0,53,0.00,,---,0.00,VWS V13.00,2017-02-19 10:31:00,
2017-02-19 03:36:00,26.8,12.0,29.85,WSW,237,0.0,0.0,53,0.00,,---,0.00,VWS V13.00,2017-02-19 10:36:00,
2017-02-19 03:41:00,26.6,12.2,29.85,WSW,237,0.0,0.0,54,0.00,,---,0.00,VWS V13.00,2017-02-19 10:41:00,
2017-02-19 03:46:00,26.8,12.4,29.85,WSW,237,2.2,2.2,54,0.00,,---,0.00,VWS V13.00,2017-02-19 10:46:00,
2017-02-19 03:51:00,26.6,12.2,29.85,WSW,238,0.0,2.7,54,0.00,,---,0.00,VWS V13.00,2017-02-19 10:51:00,
2017-02-19 03:56:00,26.6,12.6,29.85,WSW,238,0.0,2.7,55,0.00,,---,0.00,VWS V13.00,2017-02-19 10:56:00,
2017-02-19 04:02:00,26.4,12.5,29.85,WSW,238,0.0,0.0,55,0.00,,---,0.00,VWS V13.00,2017-02-19 11:02:00,
2017-02-19 04:07:00,26.2,12.3,29.85,WSW,238,0.0,0.0,55,0.00,,---,0.00,VWS V13.00,2017-02-19 11:07:00,
2017-02-19 04:12:00,26.2,12.3,29.85,WSW,238,0.0,0.0,55,0.00,,---,0.00,VWS V13.00,2017-02-19 11:12:00,
2017-02-19 04:17:00,26.1,12.1,29.85,WSW,238,0.0,0.0,55,0.00,,---,0.00,VWS V13.00,2017-02-19 11:17:00,
2017-02-19 04:22:00,26.1,12.1,29.85,WSW,238,0.0,0.0,55,0.00,,---,0.00,VWS V13.00,2017-02-19 11:22:00,
2017-02-19 04:27:00,25.7,12.2,29.85,WSW,238,0.0,0.0,56,0.00,,---,0.00,VWS V13.00,2017-02-19 11:27:00,
2017-02-19 04:32:00,25.5,12.0,29.85,WSW,238,0.0,0.0,56,0.00,,---,0.00,VWS V13.00,2017-02-19 11:32:00,
2017-02-19 04:37:00,25.3,11.9,29.85,WSW,238,0.0,0.0,56,0.00,,---,0.00,VWS V13.00,2017-02-19 11:37:00,
2017-02-19 04:42:00,25.2,11.7,29.85,WSW,238,0.0,0.0,56,0.00,,---,0.00,VWS V13.00,2017-02-19 11:42:00,
2017-02-19 04:47:00,25.0,11.5,29.85,WSW,238,0.0,0.0,56,0.00,,---,0.00,VWS V13.00,2017-02-19 11:47:00,
2017-02-19 04:52:00,25.3,11.9,29.85,WSW,238,0.0,0.0,56,0.00,,---,0.00,VWS V13.00,2017-02-19 11:52:00,
2017-02-19 04:57:00,25.3,12.2,29.85,WSW,238,0.0,0.0,57,0.00,,---,0.00,VWS V13.00,2017-02-19 11:57:00,
2017-02-19 05:02:00,25.2,12.1,29.85,WSW,238,0.0,0.0,57,0.00,,---,0.00,VWS V13.00,2017-02-19 12:02:00,
2017-02-19 05:07:00,24.8,11.7,29.85,WSW,238,0.0,0.0,57,0.00,,---,0.00,VWS V13.00,2017-02-19 12:07:00,
2017-02-19 05:12:00,24.8,11.7,29.85,WSW,238,0.0,0.0,57,0.00,,---,0.00,VWS V13.00,2017-02-19 12:12:00,
2017-02-19 05:17:00,25.0,12.3,29.85,WSW,240,0.0,0.0,58,0.00,,---,0.00,VWS V13.00,2017-02-19 12:17:00,
2017-02-19 05:22:00,25.2,12.5,29.85,WSW,240,0.0,0.0,58,0.00,,---,0.00,VWS V13.00,2017-02-19 12:22:00,
2017-02-19 05:27:00,25.0,12.3,29.85,WSW,240,0.0,0.0,58,0.00,,---,0.00,VWS V13.00,2017-02-19 12:27:00,
2017-02-19 05:32:00,25.0,12.7,29.85,WSW,239,0.0,0.0,59,0.00,,---,0.00,VWS V13.00,2017-02-19 12:32:00,
2017-02-19 05:37:00,25.0,12.7,29.85,WSW,239,0.0,0.0,59,0.00,,---,0.00,VWS V13.00,2017-02-19 12:37:00,
2017-02-19 05:42:00,24.8,12.5,29.85,WSW,239,0.0,0.0,59,0.00,,---,0.00,VWS V13.00,2017-02-19 12:42:00,
2017-02-19 05:47:00,25.0,13.1,29.85,WSW,239,0.0,0.0,60,0.00,,---,0.00,VWS V13.00,2017-02-19 12:47:00,
2017-02-19 05:52:00,25.2,13.2,29.85,WSW,239,0.0,0.0,60,0.00,,---,0.00,VWS V13.00,2017-02-19 12:52:00,
2017-02-19 05:57:00,25.0,13.1,29.85,WSW,238,0.0,0.0,60,0.00,,---,0.00,VWS V13.00,2017-02-19 12:57:00,
2017-02-19 06:02:00,24.4,12.6,29.85,WSW,238,0.0,0.0,60,0.00,,---,0.00,VWS V13.00,2017-02-19 13:02:00,
2017-02-19 06:07:00,24.3,12.4,29.85,WSW,238,0.0,0.0,60,0.00,,---,0.00,VWS V13.00,2017-02-19 13:07:00,
2017-02-19 06:12:00,24.1,12.2,29.85,WSW,238,0.0,0.0,60,0.00,,---,0.00,VWS V13.00,2017-02-19 13:12:00,
2017-02-19 06:17:00,23.9,12.1,29.85,WSW,238,0.0,0.0,60,0.00,,---,0.00,VWS V13.00,2017-02-19 13:17:00,
2017-02-19 06:22:00,23.9,12.1,29.85,WSW,238,0.0,0.0,60,0.00,,---,0.00,VWS V13.00,2017-02-19 13:22:00,
2017-02-19 06:27:00,23.9,12.1,29.85,WSW,238,0.0,0.0,60,0.00,,---,0.00,VWS V13.00,2017-02-19 13:27:00,
2017-02-19 06:32:00,23.9,12.1,29.85,WSW,238,0.0,0.0,60,0.00,,---,0.00,VWS V13.00,2017-02-19 13:32:00,
2017-02-19 06:37:00,24.3,12.8,29.85,WSW,238,0.0,0.0,61,0.00,,---,0.00,VWS V13.00,2017-02-19 13:37:00,
2017-02-19 06:42:00,24.4,13.3,29.85,WSW,238,0.0,0.0,62,0.00,,---,0.00,VWS V13.00,2017-02-19 13:42:00,
2017-02-19 06:47:00,24.4,13.3,29.85,WSW,238,0.0,0.0,62,0.00,,---,0.00,VWS V13.00,2017-02-19 13:47:00,
2017-02-19 06:52:00,24.8,13.6,29.85,WSW,238,0.0,0.0,62,0.00,,---,0.00,VWS V13.00,2017-02-19 13:52:00,
2017-02-19 06:57:00,24.8,13.6,29.85,WSW,238,0.0,0.0,62,0.00,,---,0.00,VWS V13.00,2017-02-19 13:57:00,
2017-02-19 07:02:00,25.0,13.8,29.85,WSW,238,0.0,0.0,62,0.00,,---,0.00,VWS V13.00,2017-02-19 14:02:00,
2017-02-19 07:07:00,25.2,14.0,29.85,WSW,238,0.0,0.0,62,0.00,,---,0.00,VWS V13.00,2017-02-19 14:07:00,
2017-02-19 07:12:00,25.5,14.7,29.85,WSW,238,0.0,0.0,63,0.00,,---,0.00,VWS V13.00,2017-02-19 14:12:00,
2017-02-19 07:17:00,25.7,14.9,29.85,WSW,238,0.0,0.0,63,0.00,,---,0.00,VWS V13.00,2017-02-19 14:17:00,
2017-02-19 07:22:00,26.1,15.2,29.85,WSW,238,0.0,0.0,63,0.00,,---,0.00,VWS V13.00,2017-02-19 14:22:00,
2017-02-19 07:28:00,26.2,15.4,29.85,WSW,238,0.0,0.0,63,0.00,,---,0.00,VWS V13.00,2017-02-19 14:28:00,
2017-02-19 07:38:00,26.8,15.9,29.85,SW,221,0.0,3.1,63,0.00,,---,0.00,VWS V13.00,2017-02-19 14:38:00,
2017-02-19 07:43:00,27.0,16.1,29.85,SW,221,0.0,0.0,63,0.00,,---,0.00,VWS V13.00,2017-02-19 14:43:00,
2017-02-19 07:48:00,27.1,16.6,29.85,SW,221,0.0,0.0,64,0.00,,---,0.00,VWS V13.00,2017-02-19 14:48:00,
2017-02-19 07:53:00,27.7,17.1,29.85,SW,221,0.0,0.0,64,0.00,,---,0.00,VWS V13.00,2017-02-19 14:53:00,
2017-02-19 07:58:00,27.9,17.3,29.85,SW,221,0.0,0.0,64,0.00,,---,0.00,VWS V13.00,2017-02-19 14:58:00,
2017-02-19 08:03:00,28.2,18.0,29.85,SW,221,0.0,0.0,65,0.00,,---,0.00,VWS V13.00,2017-02-19 15:03:00,
2017-02-19 08:08:00,28.6,18.0,29.85,SW,221,0.0,0.0,64,0.00,,---,0.00,VWS V13.00,2017-02-19 15:08:00,
2017-02-19 08:13:00,28.9,18.3,29.85,SW,221,0.0,0.0,64,0.00,,---,0.00,VWS V13.00,2017-02-19 15:13:00,
2017-02-19 08:18:00,29.5,19.2,29.85,SW,221,0.0,0.0,65,0.00,,---,0.00,VWS V13.00,2017-02-19 15:18:00,
2017-02-19 08:23:00,29.8,19.5,29.85,SW,221,0.0,0.0,65,0.00,,---,0.00,VWS V13.00,2017-02-19 15:23:00,
2017-02-19 08:28:00,30.2,19.9,29.85,SW,221,0.0,0.0,65,0.00,,---,0.00,VWS V13.00,2017-02-19 15:28:00,
2017-02-19 08:33:00,30.6,19.9,29.85,SW,221,0.0,0.0,64,0.00,,---,0.00,VWS V13.00,2017-02-19 15:33:00,
2017-02-19 08:38:00,31.1,20.4,29.85,SW,214,0.0,0.0,64,0.00,,---,0.00,VWS V13.00,2017-02-19 15:38:00,
2017-02-19 08:43:00,31.5,20.3,29.85,SW,229,0.0,0.0,63,0.00,,---,0.00,VWS V13.00,2017-02-19 15:43:00,
2017-02-19 08:48:00,31.8,19.9,29.85,SSW,211,0.0,0.0,61,0.00,,---,0.00,VWS V13.00,2017-02-19 15:48:00,
2017-02-19 08:53:00,32.7,20.4,29.85,SSW,192,0.0,0.0,60,0.00,,---,0.00,VWS V13.00,2017-02-19 15:53:00,
2017-02-19 08:58:00,34.0,21.2,29.85,SSW,192,0.0,0.0,59,0.00,,---,0.00,VWS V13.00,2017-02-19 15:58:00,
2017-02-19 09:03:00,35.8,22.5,29.85,SSW,192,0.0,0.0,58,0.00,,---,0.00,VWS V13.00,2017-02-19 16:03:00,
2017-02-19 09:08:00,37.4,22.3,29.85,South,191,0.0,0.0,54,0.00,,---,0.00,VWS V13.00,2017-02-19 16:08:00,
2017-02-19 09:13:00,38.7,22.1,29.85,South,182,0.0,0.0,51,0.00,,---,0.00,VWS V13.00,2017-02-19 16:13:00,
2017-02-19 09:18:00,39.4,18.2,29.85,SSE,150,0.0,0.0,42,0.00,,---,0.00,VWS V13.00,2017-02-19 16:18:00,
2017-02-19 09:23:00,39.9,17.6,29.85,SSE,158,0.0,0.0,40,0.00,,---,0.00,VWS V13.00,2017-02-19 16:23:00,
2017-02-19 09:28:00,39.7,12.3,29.82,WSW,238,0.0,0.0,32,0.00,,---,0.00,VWS V13.00,2017-02-19 16:28:00,
2017-02-19 09:33:00,40.3,14.8,29.82,SW,227,0.0,0.0,35,0.00,,---,0.00,VWS V13.00,2017-02-19 16:33:00,
2017-02-19 09:38:00,41.0,14.8,29.82,SSW,211,0.0,0.0,34,0.00,,---,0.00,VWS V13.00,2017-02-19 16:38:00,
2017-02-19 09:43:00,40.8,14.6,29.82,East,99,0.0,2.7,34,0.00,,---,0.00,VWS V13.00,2017-02-19 16:43:00,
2017-02-19 09:48:00,40.3,12.1,29.82,ESE,103,0.0,2.7,31,0.00,,---,0.00,VWS V13.00,2017-02-19 16:48:00,
2017-02-19 09:53:00,41.2,12.9,29.82,SW,215,0.0,2.7,31,0.00,,---,0.00,VWS V13.00,2017-02-19 16:53:00,
2017-02-19 09:58:00,42.4,14.0,29.82,WSW,256,0.0,2.7,31,0.00,,---,0.00,VWS V13.00,2017-02-19 16:58:00,
2017-02-19 10:03:00,44.2,15.5,29.82,WSW,253,0.0,0.0,31,0.00,,---,0.00,VWS V13.00,2017-02-19 17:03:00,
2017-02-19 10:08:00,44.8,14.5,29.82,South,172,0.0,0.0,29,0.00,,---,0.00,VWS V13.00,2017-02-19 17:08:00,
2017-02-19 10:13:00,45.1,14.0,29.82,South,184,0.0,0.0,28,0.00,,---,0.00,VWS V13.00,2017-02-19 17:13:00,
2017-02-19 10:18:00,45.5,14.3,29.82,South,184,0.0,0.0,28,0.00,,---,0.00,VWS V13.00,2017-02-19 17:18:00,
2017-02-19 10:23:00,45.5,13.5,29.82,WSW,258,0.0,2.2,27,0.00,,---,0.00,VWS V13.00,2017-02-19 17:23:00,
2017-02-19 10:28:00,47.1,14.9,29.82,West,263,0.0,2.2,27,0.00,,---,0.00,VWS V13.00,2017-02-19 17:28:00,
2017-02-19 10:33:00,48.6,15.2,29.82,West,261,3.6,4.0,26,0.00,,---,0.00,VWS V13.00,2017-02-19 17:33:00,
2017-02-19 10:38:00,47.3,12.4,29.82,WSW,254,2.7,4.0,24,0.00,,---,0.00,VWS V13.00,2017-02-19 17:38:00,
2017-02-19 10:43:00,46.6,11.7,29.82,WSW,257,0.0,2.2,24,0.00,,---,0.00,VWS V13.00,2017-02-19 17:43:00,
2017-02-19 10:48:00,46.4,11.6,29.82,WSW,253,2.7,3.6,24,0.00,,---,0.00,VWS V13.00,2017-02-19 17:48:00,
2017-02-19 10:53:00,46.9,12.1,29.82,WSW,253,0.0,3.6,24,0.00,,---,0.00,VWS V13.00,2017-02-19 17:53:00,
2017-02-19 10:58:00,48.2,13.1,29.82,WSW,256,0.0,3.6,24,0.00,,---,0.00,VWS V13.00,2017-02-19 17:58:00,
2017-02-19 11:03:00,48.7,13.6,29.82,WSW,254,0.0,0.0,24,0.00,,---,0.00,VWS V13.00,2017-02-19 18:03:00,
2017-02-19 11:08:00,49.1,10.9,29.82,WSW,257,0.0,3.1,21,0.00,,---,0.00,VWS V13.00,2017-02-19 18:08:00,
2017-02-19 11:13:00,50.4,14.9,29.79,West,265,0.0,3.1,24,0.00,,---,0.00,VWS V13.00,2017-02-19 18:13:00,
2017-02-19 11:18:00,52.3,13.6,29.79,West,270,2.7,4.9,21,0.00,,---,0.00,VWS V13.00,2017-02-19 18:18:00,
2017-02-19 11:23:00,50.9,12.4,29.79,WSW,257,0.0,4.0,21,0.00,,---,0.00,VWS V13.00,2017-02-19 18:23:00,
2017-02-19 11:28:00,49.1,10.9,29.79,WSW,258,0.0,4.0,21,0.00,,---,0.00,VWS V13.00,2017-02-19 18:28:00,
2017-02-19 11:34:00,48.0,11.0,29.79,WSW,256,0.0,4.0,22,0.00,,---,0.00,VWS V13.00,2017-02-19 18:34:00,
2017-02-19 11:39:00,48.0,11.0,29.79,WSW,256,0.0,4.0,22,0.00,,---,0.00,VWS V13.00,2017-02-19 18:39:00,
2017-02-19 11:44:00,49.1,10.9,29.79,WSW,240,0.0,0.0,21,0.00,,---,0.00,VWS V13.00,2017-02-19 18:44:00,
2017-02-19 11:49:00,49.5,11.2,29.79,West,268,2.7,3.6,21,0.00,,---,0.00,VWS V13.00,2017-02-19 18:49:00,
2017-02-19 11:54:00,50.7,12.2,29.79,South,170,0.0,3.6,21,0.00,,---,0.00,VWS V13.00,2017-02-19 18:54:00,
2017-02-19 11:59:00,51.8,13.1,29.76,South,170,0.0,3.6,21,0.00,,---,0.00,VWS V13.00,2017-02-19 18:59:00,
2017-02-19 12:04:00,52.5,13.7,29.76,SW,235,0.0,4.0,21,0.00,,---,0.00,VWS V13.00,2017-02-19 19:04:00,
2017-02-19 12:09:00,54.0,13.8,29.76,WSW,253,3.6,4.0,20,0.00,,---,0.00,VWS V13.00,2017-02-19 19:09:00,
2017-02-19 12:12:00,54.9,12.2,29.76,SSE,151,2.7,4.0,18,0.00,,---,0.00,VWS V13.00,2017-02-19 19:12:00,
2017-02-19 12:17:00,55.0,12.3,29.76,WSW,257,0.0,4.0,18,0.00,,---,0.00,VWS V13.00,2017-02-19 19:17:00,
2017-02-19 12:18:00,55.2,12.5,29.76,West,268,3.6,4.0,18,0.00,,---,0.00,VWS V13.00,2017-02-19 19:18:00,
2017-02-19 12:23:00,54.5,11.9,29.76,WSW,255,0.0,2.7,18,0.00,,---,0.00,VWS V13.00,2017-02-19 19:23:00,
2017-02-19 12:28:00,54.1,11.6,29.76,WSW,257,3.6,4.9,18,0.00,,---,0.00,VWS V13.00,2017-02-19 19:28:00,
2017-02-19 12:33:00,53.8,11.3,29.76,West,262,0.0,4.9,18,0.00,,---,0.00,VWS V13.00,2017-02-19 19:33:00,
2017-02-19 12:38:00,54.0,11.4,29.76,West,261,0.0,4.9,18,0.00,,---,0.00,VWS V13.00,2017-02-19 19:38:00,
2017-02-19 12:43:00,53.8,11.3,29.76,WSW,254,2.2,3.1,18,0.00,,---,0.00,VWS V13.00,2017-02-19 19:43:00,
2017-02-19 12:48:00,54.7,12.0,29.76,West,268,2.7,3.1,18,0.00,,---,0.00,VWS V13.00,2017-02-19 19:48:00,
2017-02-19 12:53:00,55.0,12.3,29.76,WSW,246,2.7,3.6,18,0.00,,---,0.00,VWS V13.00,2017-02-19 19:53:00,
2017-02-19 12:58:00,55.9,11.8,29.76,SW,233,2.2,5.8,17,0.00,,---,0.00,VWS V13.00,2017-02-19 19:58:00,
2017-02-19 13:03:00,55.9,11.8,29.76,SSW,210,0.0,2.7,17,0.00,,---,0.00,VWS V13.00,2017-02-19 20:03:00,
2017-02-19 13:08:00,56.1,11.9,29.76,West,260,4.0,5.4,17,0.00,,---,0.00,VWS V13.00,2017-02-19 20:08:00,
2017-02-19 13:13:00,55.9,11.8,29.76,West,270,3.1,6.3,17,0.00,,---,0.00,VWS V13.00,2017-02-19 20:13:00,
2017-02-19 13:18:00,55.9,11.8,29.76,SW,221,0.0,6.3,17,0.00,,---,0.00,VWS V13.00,2017-02-19 20:18:00,
2017-02-19 13:23:00,55.4,11.3,29.76,ESE,102,0.0,3.6,17,0.00,,---,0.00,VWS V13.00,2017-02-19 20:23:00,
2017-02-19 13:28:00,55.0,12.3,29.76,WSW,249,3.6,4.9,18,0.00,,---,0.00,VWS V13.00,2017-02-19 20:28:00,
2017-02-19 13:33:00,54.3,11.7,29.76,NW,308,5.4,5.8,18,0.00,,---,0.00,VWS V13.00,2017-02-19 20:33:00,
2017-02-19 13:38:00,52.9,10.6,29.76,West,263,3.6,6.3,18,0.00,,---,0.00,VWS V13.00,2017-02-19 20:38:00,
2017-02-19 13:43:00,52.0,9.8,29.76,West,264,0.0,4.0,18,0.00,,---,0.00,VWS V13.00,2017-02-19 20:43:00,
2017-02-19 13:48:00,51.4,10.6,29.76,SW,218,2.7,8.3,19,0.00,,---,0.00,VWS V13.00,2017-02-19 20:48:00,
2017-02-19 13:53:00,50.2,9.5,29.76,South,182,2.2,8.3,19,0.00,,---,0.00,VWS V13.00,2017-02-19 20:53:00,
2017-02-19 13:58:00,45.1,14.8,29.76,SW,227,4.0,8.3,29,0.00,,---,0.00,VWS V13.00,2017-02-19 20:58:00,
2017-02-19 14:03:00,43.3,16.9,29.76,WSW,256,0.0,3.6,34,0.00,,---,0.00,VWS V13.00,2017-02-19 21:03:00,
2017-02-19 14:08:00,43.0,19.1,29.76,East,90,0.0,3.6,38,0.00,,---,0.00,VWS V13.00,2017-02-19 21:08:00,
2017-02-19 14:13:00,42.6,19.4,29.79,NW,319,2.7,3.6,39,0.00,,---,0.00,VWS V13.00,2017-02-19 21:13:00,
2017-02-19 14:18:00,42.1,18.3,29.79,East,93,3.1,3.6,38,0.00,,---,0.00,VWS V13.00,2017-02-19 21:18:00,
2017-02-19 14:23:00,41.9,18.8,29.79,SE,131,0.0,2.7,39,0.00,,---,0.00,VWS V13.00,2017-02-19 21:23:00,
2017-02-19 14:28:00,41.7,19.2,29.79,ESE,105,0.0,3.6,40,0.00,,---,0.00,VWS V13.00,2017-02-19 21:28:00,
2017-02-19 14:33:00,42.3,19.7,29.79,East,92,2.2,3.6,40,0.00,,---,0.00,VWS V13.00,2017-02-19 21:33:00,
2017-02-19 14:38:00,42.3,19.7,29.79,ESE,105,0.0,3.6,40,0.00,,---,0.00,VWS V13.00,2017-02-19 21:38:00,
2017-02-19 14:43:00,42.6,20.0,29.79,ESE,120,0.0,2.2,40,0.00,,---,0.00,VWS V13.00,2017-02-19 21:43:00,
2017-02-19 14:48:00,42.8,20.2,29.79,East,95,0.0,2.7,40,0.00,,---,0.00,VWS V13.00,2017-02-19 21:48:00,
2017-02-19 14:58:00,42.3,19.7,29.79,WNW,283,0.0,4.9,40,0.00,,---,0.00,VWS V13.00,2017-02-19 21:58:00,
2017-02-19 15:03:00,42.3,19.1,29.79,WNW,284,0.0,3.1,39,0.00,,---,0.00,VWS V13.00,2017-02-19 22:03:00,
2017-02-19 15:08:00,42.3,19.7,29.79,WNW,284,0.0,3.1,40,0.00,,---,0.00,VWS V13.00,2017-02-19 22:08:00,
2017-02-19 15:13:00,41.5,19.6,29.82,WNW,283,4.9,4.9,41,0.00,,---,0.00,VWS V13.00,2017-02-19 22:13:00,
2017-02-19 15:18:00,41.0,20.8,29.82,WSW,248,4.0,8.1,44,0.00,,---,0.00,VWS V13.00,2017-02-19 22:18:00,
2017-02-19 15:23:00,40.3,18.5,29.82,ENE,62,2.7,6.3,41,0.00,,---,0.00,VWS V13.00,2017-02-19 22:23:00,
2017-02-19 15:28:00,39.9,19.8,29.82,South,175,2.7,6.3,44,0.00,,---,0.00,VWS V13.00,2017-02-19 22:28:00,
2017-02-19 15:34:00,39.7,21.2,29.82,WNW,283,4.9,6.3,47,0.04,,---,0.04,VWS V13.00,2017-02-19 22:34:00,
2017-02-19 15:39:00,39.6,21.0,29.82,NW,307,4.0,6.3,47,0.04,,---,0.04,VWS V13.00,2017-02-19 22:39:00,
2017-02-19 15:44:00,39.4,18.8,29.82,WSW,256,4.0,6.3,43,0.04,,---,0.04,VWS V13.00,2017-02-19 22:44:00,
2017-02-19 15:49:00,40.1,19.4,29.82,WNW,301,0.0,6.3,43,0.04,,---,0.04,VWS V13.00,2017-02-19 22:49:00,
2017-02-19 15:54:00,42.1,19.5,29.82,NW,307,2.2,6.3,40,0.04,,---,0.04,VWS V13.00,2017-02-19 22:54:00,
2017-02-19 15:59:00,43.7,19.8,29.82,SSE,152,3.6,6.3,38,0.04,,---,0.04,VWS V13.00,2017-02-19 22:59:00,
2017-02-19 16:04:00,44.8,16.7,29.82,SSW,203,2.2,6.3,32,0.04,,---,0.04,VWS V13.00,2017-02-19 23:04:00,
2017-02-19 16:09:00,45.0,14.6,29.82,NW,311,6.3,6.3,29,0.04,,---,0.04,VWS V13.00,2017-02-19 23:09:00,
2017-02-19 16:14:00,45.0,14.6,29.82,SW,231,2.7,6.7,29,0.04,,---,0.04,VWS V13.00,2017-02-19 23:14:00,
2017-02-19 16:19:00,44.8,13.7,29.82,West,281,2.7,6.7,28,0.04,,---,0.04,VWS V13.00,2017-02-19 23:19:00,
2017-02-19 16:24:00,44.8,13.7,29.82,South,183,4.0,7.6,28,0.04,,---,0.04,VWS V13.00,2017-02-19 23:24:00,
2017-02-19 16:29:00,45.0,13.8,29.82,West,280,5.4,8.3,28,0.04,,---,0.04,VWS V13.00,2017-02-19 23:29:00,
2017-02-19 16:34:00,45.3,14.1,29.82,West,270,2.7,8.3,28,0.04,,---,0.04,VWS V13.00,2017-02-19 23:34:00,
2017-02-19 16:39:00,45.5,14.3,29.85,WNW,300,0.0,8.3,28,0.04,,---,0.04,VWS V13.00,2017-02-19 23:39:00,